Temperature
20 19 20 19 19 19 19 19 19 19 19 19 19 19 19 19 19 19 19 19 19 19 18 18 18 18 18 18 18 18 18 18 18 18 18 18 17 17 18 18 17 17 18
20 19 20 19 19 19 19 19 19 19 19 19 19 19 19 19 19 19 19 18 18 19 19 18 18 18 18 18 18 18 18 18 18 18 18 17 17 17 17 17 17 17 18
20 19 19 19 19 19 19 19 19 19 19 19 19 19 19 19 19 18 19 18 18 18 18 18 18 18 18 18 18 18 18 18 18 18 17 17 17 17 17 17 17 17 17
20 19 19 19 19 19 19 19 19 19 19 19 19 19 19 18 18 18 18 18 18 18 18 18 18 18 18 18 18 18 18 18 18 18 17 17 17 17 17 17 17 17 17
20 19 19 19 19 19 19 19 19 19 19 19 19 19 18 18 18 18 18 18 18 18 18 18 18 18 18 18 18 18 18 18 18 17 17 17 17 17 17 17 17 17 17
20 19 19 19 19 19 19 19 19 19 19 19 19 19 18 18 18 19 18 18 18 18 18 18 18 18 18 18 18 18 18 18 18 17 17 17 17 17 17 17 17 17 17
20 19 19 19 19 19 19 19 19 19 19 19 19 19 18 18 18 18 18 18 18 18 18 18 18 18 18 18 18 18 18 18 17 17 17 17 17 17 17 17 17 17 17
20 20 19 19 19 19 19 19 19 19 19 19 19 18 18 19 18 19 19 19 18 18 18 18 18 18 18 18 18 18 18 18 17 17 17 17 17 17 17 17 17 17 17
20 20 19 19 19 19 19 19 19 19 19 19 19 19 18 18 18 18 19 19 18 18 18 18 18 18 18 18 18 18 18 18 17 17 17 17 17 17 17 17 17 17 17
20 19 19 19 19 19 19 19 19 19 19 19 19 19 18 18 18 18 18 19 19 18 18 18 18 18 18 18 18 18 18 18 18 18 17 17 17 17 17 17 17 17 17
19 19 19 19 19 19 19 18 18 19 19 18 18 18 18 18 18 18 18 19 19 19 18 18 18 18 18 18 18 18 18 18 18 17 17 17 17 17 17 17 17 17 17
20 20 19 19 19 19 18 18 18 18 18 18 18 18 18 18 18 18 18 19 19 19 18 18 18 18 18 18 18 18 18 17 18 17 17 17 17 17 17 17 17 17 17
20 19 19 19 19 19 19 18 18 18 18 18 18 18 18 18 18 18 18 18 18 18 18 18 18 18 18 18 18 18 18 18 18 17 17 17 17 17 17 17 17 17 17
19 19 19 19 19 19 18 18 18 18 18 18 18 18 18 18 18 18 18 18 18 18 18 18 17 18 17 17 17 18 18 18 18 17 17 17 17 17 17 17 17 17 17
19 19 19 18 18 18 18 18 18 18 18 18 18 18 18 18 18 18 18 18 18 18 18 18 18 17 17 17 17 18 18 17 17 17 17 17 17 17 17 17 17 17 17
19 19 19 18 18 18 18 18 18 18 18 18 18 18 18 18 18 18 18 18 18 18 18 18 17 18 17 17 17 17 17 17 17 17 17 17 17 17 17 17 17 17 17
19 19 19 19 19 18 18 18 18 18 18 18 18 18 18 18 18 18 18 18 18 18 18 18 17 17 18 18 17 17 17 17 17 17 17 17 17 17 17 17 17 17 17
19 19 19 19 19 18 19 18 18 18 18 18 18 18 18 18 18 18 18 18 18 18 18 18 17 17 18 18 18 18 18 17 17 17 17 17 17 17 17 17 17 17 17
19 19 19 19 19 18 18 18 18 18 18 18 18 18 18 18 18 18 18 18 18 18 18 18 17 17 17 17 18 18 18 18 17 17 17 17 17 17 17 17 17 17 17
19 19 19 19 19 19 18 18 18 18 18 18 18 18 18 18 18 18 18 18 18 18 18 18 17 17 17 17 18 18 18 18 17 17 17 17 17 17 17 17 17 17 17
19 19 19 19 19 19 19 19 18 18 18 18 18 18 18 18 18 18 18 18 18 18 18 18 18 17 17 18 18 18 18 18 18 17 17 17 17 17 17 17 17 17 17
20 19 19 19 19 19 19 19 18 18 18 18 18 18 18 18 18 18 18 18 18 18 18 18 18 17 18 17 18 18 19 18 17 18 17 17 17 17 17 17 17 17 17
20 20 20 19 19 19 19 19 18 18 18 18 18 18 18 18 18 18 18 18 18 18 18 18 17 17 17 17 18 18 19 19 18 18 17 17 17 17 17 17 17 17 16
20 20 20 20 20 19 19 19 18 18 19 18 18 18 18 18 18 18 18 18 18 18 18 17 17 17 17 17 17 17 18 18 18 19 18 18 17 17 17 17 17 17 16
21 20 20 20 20 20 19 19 19 18 18 18 18 18 18 18 18 18 18 18 18 18 18 17 17 17 17 17 17 17 17 17 18 18 18 18 17 17 17 17 17 17 16
21 20 20 20 20 20 19 19 19 19 18 18 18 18 18 18 18 18 18 18 18 18 17 17 17 17 17 17 17 17 17 18 18 18 18 18 18 17 17 17 17 17 16
Wind_Speed
4 7 11 8 7 6 6 7 7 7 7 8 9 8 7 7 7 7 8 8 9 10 10 9 9 9 10 11 11 11 11 11 12 13 12 12 11 11 11 11 10 10 12
6 8 11 8 7 7 6 7 7 7 7 8 8 8 8 7 6 7 8 8 8 9 9 9 9 9 10 11 11 11 11 11 12 13 13 12 12 11 11 10 8 9 12
7 9 10 8 7 7 7 7 7 7 7 8 8 7 7 7 6 6 7 8 8 9 9 9 9 9 10 10 11 11 10 10 11 11 12 11 12 11 11 10 10 11 12
7 8 9 9 7 7 8 7 7 7 7 7 7 7 7 6 6 6 6 7 8 8 9 9 9 9 10 11 11 11 10 10 10 10 9 8 10 12 12 11 11 11 11
7 8 10 9 8 7 8 7 7 7 7 7 7 6 6 6 6 6 6 7 8 8 8 9 9 9 10 10 10 10 11 10 9 8 7 7 8 12 12 11 12 12 12
7 8 10 9 8 7 7 7 7 7 6 6 6 6 6 7 6 6 6 6 7 7 8 8 9 9 9 9 10 10 11 10 9 7 6 6 8 11 12 11 11 12 12
6 8 9 9 7 7 7 7 7 6 6 6 6 6 6 7 6 6 6 6 6 7 7 8 8 8 8 9 9 9 9 9 6 5 5 6 7 10 12 12 11 11 11
6 7 8 10 8 6 6 7 7 6 6 6 5 5 6 6 6 6 6 6 6 7 6 7 7 7 7 7 8 8 8 7 6 5 5 6 8 9 11 11 10 10 11
5 6 5 6 8 8 8 7 7 6 6 5 5 5 5 5 5 6 6 5 5 6 6 6 5 6 6 6 7 7 7 6 4 4 5 6 10 9 10 10 10 10 10
5 5 4 5 5 4 7 8 6 6 5 4 4 4 3 4 5 5 5 5 5 5 5 4 4 4 5 6 6 7 7 8 5 4 4 7 9 9 9 8 9 10 10
5 4 4 4 4 3 4 6 6 6 5 4 4 4 2 2 3 4 6 5 4 5 4 4 3 4 5 7 7 7 8 4 4 3 4 8 8 8 8 8 8 9 10
4 4 4 3 3 3 3 3 2 3 4 3 3 2 2 2 2 2 6 5 4 4 4 4 3 5 5 5 8 9 5 3 3 3 5 8 8 7 7 7 7 8 9
4 4 3 3 2 2 2 2 2 2 3 3 3 2 2 1 1 1 3 5 4 4 3 5 4 2 2 2 2 3 2 3 3 3 5 8 7 7 7 8 8 9 10
4 4 3 3 3 3 2 2 2 2 2 2 2 1 2 1 1 1 1 1 1 2 1 1 1 2 2 2 3 3 3 2 2 3 6 8 7 6 7 7 8 9 10
3 3 3 3 3 3 2 1 2 2 2 3 2 1 1 1 1 1 1 1 0 1 1 1 1 2 1 2 3 3 2 2 2 3 5 8 7 6 7 7 7 9 10
2 2 3 2 3 2 2 2 2 2 2 2 2 2 1 0 1 0 1 1 0 0 1 0 1 1 1 2 2 2 2 2 2 2 3 6 8 7 7 7 7 7 9
2 2 1 2 2 2 1 1 1 1 2 2 1 1 1 1 1 1 0 0 0 0 1 1 1 1 2 2 2 2 2 2 2 3 3 3 5 8 7 6 6 6 8
1 1 1 1 2 2 1 1 1 1 1 1 1 1 1 1 1 1 1 1 1 1 1 1 1 1 1 1 2 2 2 2 3 3 3 3 3 4 7 7 5 5 7
1 1 1 0 1 0 0 0 0 0 1 1 1 1 1 1 2 2 1 1 1 1 0 0 1 0 1 1 2 2 2 2 2 3 3 3 3 3 4 7 7 6 6
2 2 1 1 0 1 0 1 0 0 0 1 1 1 2 1 1 2 1 1 2 1 0 0 0 0 1 1 1 2 2 2 2 2 2 3 3 3 3 3 5 6 6
2 2 2 1 1 1 0 1 0 0 1 1 1 1 1 2 1 2 1 1 2 1 1 1 1 1 1 1 1 2 2 2 1 2 2 2 2 3 3 3 3 3 6
3 3 3 2 2 2 1 1 1 2 1 1 1 1 1 1 2 2 1 2 1 1 1 1 1 1 1 1 1 1 2 3 2 2 2 2 2 2 2 3 3 3 4
4 3 2 2 2 2 2 1 1 1 1 1 1 1 1 2 2 2 2 2 2 2 1 2 2 2 1 1 0 1 1 1 2 3 3 2 2 2 2 2 3 4 4
3 3 3 2 2 2 2 1 2 1 2 2 2 2 1 2 2 2 2 2 3 2 1 2 2 2 2 2 1 1 1 1 2 2 3 3 3 2 2 2 2 4 4
3 3 3 2 2 2 2 2 2 2 2 2 2 2 2 2 2 2 2 2 2 2 2 2 1 2 2 2 1 1 1 1 2 2 1 2 2 2 2 2 2 2 4
3 3 3 2 2 2 2 2 2 2 2 3 3 3 2 1 1 2 2 2 3 2 2 3 3 3 2 2 2 2 2 2 2 2 2 2 2 2 2 2 3 3 4
Wind_Direction
88 104 113 118 118 114 114 119 123 122 121 122 119 119 117 111 111 112 118 119 125 130 132 135 139 144 149 148 147 147 146 147 149 148 148 146 144 146 146 148 155 140 133
100 106 115 117 115 114 115 118 120 122 121 122 122 120 118 114 111 112 115 120 122 126 129 133 135 138 145 146 144 144 147 151 149 150 153 152 151 153 153 155 158 132 141
104 108 116 109 106 107 110 110 113 117 116 118 120 119 120 117 113 111 114 118 121 125 127 129 133 140 145 146 146 145 149 149 150 156 168 162 153 155 156 154 150 143 147
104 107 107 105 104 103 105 103 106 111 113 114 113 114 117 117 114 111 114 119 120 122 126 126 128 135 142 145 146 147 148 151 155 171 168 158 155 153 160 159 157 155 154
102 106 105 105 101 99 101 99 98 105 111 112 109 110 111 112 109 107 109 116 120 124 128 125 126 130 135 141 145 147 146 149 164 184 152 154 150 153 164 164 164 162 158
110 110 105 104 99 100 101 95 92 93 100 105 106 106 105 103 101 104 109 113 117 125 128 127 126 128 132 137 143 147 149 156 180 166 149 156 148 159 171 169 168 167 163
101 100 104 105 100 100 98 96 94 91 91 95 104 106 107 106 103 101 102 108 113 120 128 130 127 130 132 137 143 148 155 173 185 159 154 154 146 157 170 169 171 169 167
99 101 107 122 114 108 103 99 97 92 88 85 91 99 103 106 105 104 104 105 111 116 124 128 129 130 137 141 149 158 170 196 183 159 156 151 139 153 165 168 172 170 168
95 98 102 115 120 129 114 98 95 91 87 83 87 93 97 100 102 105 109 106 112 115 118 124 133 133 140 151 158 166 176 208 207 160 159 147 143 157 166 170 174 173 174
86 92 97 98 99 112 117 113 111 103 97 98 97 96 104 114 117 122 124 110 111 114 118 127 136 146 154 163 166 176 190 208 197 164 152 137 148 167 174 178 178 179 179
82 82 88 84 84 94 97 114 132 130 121 139 126 118 147 116 114 134 99 109 117 116 120 125 138 153 172 173 175 188 202 196 165 153 139 131 157 170 177 182 182 180 180
74 73 80 69 73 89 94 106 114 115 117 117 97 108 114 92 85 97 125 134 133 141 152 144 157 179 199 172 172 193 192 172 162 155 142 150 167 174 181 184 187 185 184
75 67 72 77 78 75 86 101 97 98 107 119 93 98 105 103 98 117 141 151 160 174 168 158 179 167 149 126 134 157 167 173 162 158 139 150 174 186 190 188 193 192 191
74 68 59 64 71 62 56 74 91 88 95 86 89 59 91 72 40 70 97 110 152 154 138 154 151 126 125 133 138 143 157 170 153 143 136 147 172 185 187 191 199 197 190
85 75 72 62 74 82 78 46 72 70 61 81 65 75 59 74 58 85 70 69 111 140 140 132 128 112 143 154 157 151 156 167 162 154 138 153 175 187 190 191 195 195 191
81 75 78 80 94 90 92 79 70 75 78 50 63 51 6 353 34 74 118 91 84 152 73 158 129 131 155 149 156 152 172 180 160 177 158 162 177 185 193 196 196 195 192
91 73 84 104 101 93 77 81 103 82 71 56 57 43 322 318 332 301 1 22 28 132 156 209 177 157 178 165 156 157 166 182 169 173 168 171 172 177 180 184 193 202 197
90 107 93 70 101 102 70 15 48 40 48 37 24 348 333 320 294 289 307 328 335 245 174 177 201 158 164 164 157 161 153 158 170 174 170 167 168 162 168 173 186 201 197
126 132 131 84 54 38 63 216 315 66 7 346 345 334 341 321 301 289 312 339 270 259 207 238 116 178 166 178 166 153 163 161 175 173 164 160 159 169 167 165 176 187 189
143 151 148 161 132 262 225 186 241 16 327 318 307 322 316 313 296 287 272 276 270 254 231 30 146 201 221 204 179 131 152 160 177 165 177 163 159 162 165 159 174 174 174
157 167 169 185 162 205 220 274 270 344 312 296 282 320 302 305 291 268 286 256 270 256 284 257 234 192 185 203 195 167 157 158 168 169 181 169 162 162 162 165 180 177 169
175 185 189 190 196 215 191 245 286 314 308 312 323 350 312 299 281 234 238 264 275 246 229 237 218 232 262 218 251 215 188 178 182 166 172 177 174 161 165 170 170 180 182
189 194 192 196 203 225 234 225 242 242 273 307 306 303 307 308 290 282 254 262 264 258 225 232 218 222 238 212 255 277 249 218 175 162 173 172 167 163 180 169 179 177 174
193 184 182 183 199 219 226 239 259 294 316 321 309 329 326 322 308 288 264 259 260 267 245 241 207 231 227 220 198 272 319 327 253 188 174 169 168 176 198 196 169 164 174
188 185 178 171 196 216 229 215 242 266 291 307 310 323 313 310 299 290 269 261 261 260 249 251 237 241 231 230 231 218 211 224 266 267 199 175 173 190 206 202 195 187 174
176 181 171 160 179 212 230 237 246 274 295 308 306 312 307 312 304 300 262 250 252 261 244 227 227 217 235 238 245 237 233 251 244 250 236 199 201 212 214 219 217 204 193
Height
1515 1514 1513 1513 1514 1514 1514 1514 1515 1515 1516 1516 1516 1516 1517 1517 1516 1516 1515 1515 1516 1517 1518 1520 1522 1523 1525 1526 1528 1529 1531 1532 1533 1533 1534 1536 1537 1538 1540 1541 1543 1544 1545
1517 1516 1515 1515 1515 1515 1515 1516 1516 1517 1517 1517 1518 1518 1518 1518 1518 1517 1517 1517 1517 1518 1520 1521 1522 1523 1525 1527 1528 1530 1531 1532 1533 1534 1535 1536 1537 1538 1540 1541 1543 1545 1545
1518 1517 1517 1517 1517 1516 1517 1517 1518 1518 1519 1519 1519 1519 1519 1519 1519 1519 1519 1519 1519 1520 1521 1522 1523 1524 1525 1527 1528 1530 1531 1532 1533 1534 1535 1537 1537 1538 1539 1540 1542 1544 1545
1520 1520 1519 1518 1518 1519 1519 1519 1519 1520 1520 1520 1520 1520 1521 1520 1520 1520 1520 1520 1521 1521 1523 1523 1524 1525 1526 1528 1529 1530 1531 1533 1534 1534 1536 1537 1538 1537 1539 1540 1541 1543 1545
1521 1521 1520 1520 1520 1520 1521 1521 1521 1522 1521 1521 1521 1522 1522 1522 1522 1522 1522 1522 1522 1523 1524 1525 1525 1526 1527 1528 1530 1531 1532 1533 1534 1534 1536 1537 1537 1536 1538 1539 1541 1543 1544
1523 1523 1522 1522 1522 1522 1522 1522 1523 1523 1523 1523 1523 1523 1523 1523 1523 1523 1523 1523 1524 1524 1526 1526 1527 1528 1528 1529 1530 1531 1532 1533 1534 1536 1536 1536 1535 1534 1535 1538 1540 1542 1544
1524 1525 1524 1523 1523 1524 1524 1524 1524 1524 1524 1524 1524 1524 1524 1524 1525 1525 1525 1525 1525 1526 1527 1528 1529 1529 1530 1531 1531 1532 1533 1533 1535 1536 1536 1535 1533 1530 1532 1536 1539 1542 1544
1526 1526 1526 1525 1525 1525 1525 1525 1525 1525 1525 1525 1525 1525 1525 1525 1526 1526 1526 1526 1527 1527 1528 1529 1530 1531 1531 1532 1532 1533 1533 1534 1536 1536 1536 1535 1533 1530 1532 1536 1539 1541 1543
1527 1528 1528 1528 1527 1527 1526 1527 1527 1527 1527 1527 1527 1527 1527 1527 1527 1527 1527 1528 1528 1529 1530 1530 1531 1531 1532 1532 1533 1534 1534 1534 1536 1536 1536 1535 1534 1533 1534 1537 1539 1541 1543
1529 1529 1529 1530 1530 1530 1529 1528 1528 1528 1528 1528 1528 1528 1528 1528 1528 1528 1528 1529 1529 1530 1530 1531 1531 1532 1532 1533 1533 1534 1534 1535 1536 1537 1536 1536 1535 1535 1536 1537 1538 1540 1542
1530 1531 1531 1531 1531 1531 1531 1530 1530 1530 1529 1529 1529 1529 1529 1530 1530 1530 1529 1529 1530 1530 1531 1531 1532 1532 1532 1533 1533 1534 1534 1536 1537 1537 1537 1536 1535 1536 1536 1536 1538 1540 1541
1532 1532 1532 1532 1532 1532 1532 1531 1531 1532 1531 1530 1530 1530 1530 1530 1530 1531 1530 1530 1530 1531 1532 1532 1532 1532 1533 1534 1534 1534 1536 1536 1537 1537 1536 1535 1536 1536 1536 1536 1537 1539 1540
1533 1533 1533 1533 1532 1532 1532 1532 1532 1532 1532 1532 1531 1531 1531 1531 1531 1531 1531 1531 1531 1532 1533 1533 1533 1534 1534 1534 1535 1535 1536 1537 1537 1537 1537 1536 1536 1536 1536 1536 1537 1538 1540
1534 1534 1534 1534 1533 1532 1533 1533 1533 1533 1533 1533 1532 1532 1532 1531 1531 1531 1531 1532 1532 1533 1533 1533 1534 1534 1534 1535 1535 1535 1536 1536 1537 1537 1536 1536 1536 1536 1536 1536 1537 1538 1539
1535 1535 1534 1534 1533 1533 1533 1533 1534 1534 1534 1534 1533 1532 1532 1532 1532 1532 1531 1531 1532 1532 1533 1533 1533 1534 1534 1535 1535 1535 1536 1536 1537 1537 1537 1536 1536 1536 1536 1536 1536 1537 1538
1536 1536 1535 1534 1534 1534 1534 1534 1534 1535 1534 1534 1534 1533 1532 1532 1532 1532 1532 1531 1532 1532 1532 1533 1533 1533 1534 1534 1535 1535 1535 1536 1536 1536 1537 1536 1535 1535 1535 1536 1536 1536 1537
1537 1536 1536 1535 1535 1534 1535 1535 1535 1536 1536 1535 1534 1533 1533 1532 1532 1532 1532 1532 1532 1532 1532 1532 1533 1533 1534 1534 1534 1535 1535 1535 1536 1536 1536 1536 1536 1535 1535 1535 1535 1536 1537
1537 1536 1536 1536 1536 1535 1535 1535 1536 1536 1536 1535 1535 1534 1533 1532 1532 1532 1532 1532 1532 1532 1532 1532 1533 1533 1533 1534 1534 1534 1534 1534 1535 1535 1535 1535 1535 1536 1535 1535 1535 1535 1536
1537 1536 1536 1536 1536 1536 1535 1535 1535 1535 1535 1535 1535 1534 1534 1533 1532 1532 1532 1532 1532 1532 1532 1532 1532 1533 1533 1533 1533 1533 1534 1534 1534 1535 1535 1535 1535 1535 1535 1535 1535 1535 1535
1537 1536 1536 1536 1536 1536 1536 1536 1536 1536 1536 1536 1535 1534 1534 1533 1532 1532 1532 1531 1532 1532 1531 1531 1531 1532 1532 1532 1533 1533 1533 1534 1534 1534 1534 1535 1535 1535 1535 1535 1535 1535 1535
1537 1536 1536 1536 1536 1535 1536 1536 1536 1536 1536 1536 1535 1534 1533 1533 1532 1531 1532 1531 1531 1531 1531 1531 1531 1531 1532 1532 1533 1533 1533 1533 1533 1533 1534 1534 1534 1534 1534 1534 1535 1535 1535
1537 1536 1536 1536 1536 1536 1536 1535 1536 1536 1536 1535 1535 1533 1533 1532 1532 1532 1530 1531 1530 1530 1530 1530 1530 1530 1531 1531 1532 1532 1532 1534 1533 1533 1533 1533 1533 1534 1534 1534 1534 1534 1535
1536 1536 1536 1535 1535 1535 1535 1536 1536 1536 1536 1535 1534 1534 1533 1532 1531 1530 1530 1529 1529 1529 1529 1529 1529 1529 1530 1530 1531 1532 1531 1531 1531 1532 1531 1532 1532 1532 1533 1533 1533 1533 1533
1536 1535 1535 1535 1535 1535 1535 1535 1535 1536 1535 1535 1534 1533 1532 1531 1530 1530 1529 1528 1528 1528 1528 1528 1528 1528 1528 1529 1529 1529 1530 1530 1530 1530 1530 1530 1531 1531 1532 1532 1532 1532 1533
1535 1535 1534 1534 1534 1534 1534 1534 1534 1535 1535 1534 1533 1532 1531 1531 1529 1528 1528 1527 1526 1527 1526 1526 1526 1526 1527 1528 1528 1529 1529 1529 1529 1529 1529 1530 1530 1530 1531 1531 1532 1532 1532
1534 1534 1534 1533 1533 1533 1533 1533 1533 1533 1533 1533 1532 1531 1531 1530 1529 1527 1527 1526 1525 1525 1525 1524 1524 1525 1525 1525 1526 1527 1527 1528 1528 1528 1527 1528 1528 1529 1529 1530 1530 1531 1531